Weather History for Rotterdam Airport Zestienhoven, Netherlands

Change the Weather History Date:

Wednesday, May 7, 2014

  Actual Average Record
Temperature  
Mean Temperature 56 °F -  
Max Temperature 61 °F 63 °F - ()
Min Temperature 51 °F 47 °F - ()
Degree Days  
Heating Degree Days 9    
Growing Degree Days 6 (Base 50)    
Moisture  
Dew Point 49 °F    
Average Humidity 76    
Maximum Humidity 88    
Minimum Humidity 55    
Precipitation  
Precipitation 0.08 in - - ()
Sea Level Pressure  
Sea Level Pressure 29.78 in    
Wind  
Wind Speed 15 mph ()    
Max Wind Speed 22 mph    
Max Gust Speed -    
Visibility 7.5 miles    
Events Rain    
T = Trace of Precipitation, MM = Missing Value Source: Averaged Metar Reports

Daily Weather History Graph

Daily Weather History Graph

Search for Another Location

Airport:

Trip Planner

Search our weather history database for the weather conditions in past years. The results will help you decide how hot, cold, wet, or windy it might be!

Date:

Astronomy

May. 07, 2014 Rise Set
Actual Time 6:02 AM CEST 9:16 PM CEST
Civil Twilight 5:21 AM CEST 9:56 PM CEST
Nautical Twilight 4:28 AM CEST 10:50 PM CEST
Astronomical Twilight 3:17 AM CEST 12:03 AM CEST
Moon 1:14 PM CEST (5/7) 2:46 AM CEST (5/7)
Length of Visible Light 16h 34m
Length of Day
15h 14m
First Quarter, 53% of the Moon is Illuminated
May 7
First Quarter
May 14
Full
May 21
Last Quarter
May 28
New
Jun 5
First Quarter

Hourly Weather History & Observations

Time (CEST) Temp. Dew Point Humidity Pressure Visibility Wind Dir Wind Speed Gust Speed Precip Events Conditions
12:00 AM 56 °F 50 °F 73% 29.71 in 17 mi SW 15.7 mph - -   Partly Cloudy
12:25 AM 55.4 °F 50.0 °F 82% 29.71 in 6.2 mi SW 15.0 mph - N/A   Mostly Cloudy
12:55 AM 53.6 °F 46.4 °F 77% 29.71 in 6.2 mi WSW 16.1 mph - N/A   Unknown
1:00 AM 53 °F 45 °F 66% 29.72 in 19 mi WSW 17.9 mph - -   Partly Cloudy
1:25 AM 53.6 °F 44.6 °F 72% 29.71 in 6.2 mi SW 15.0 mph - N/A   Unknown
1:55 AM 51.8 °F 46.4 °F 82% 29.71 in 6.2 mi SW 15.0 mph - N/A   Partly Cloudy
2:00 AM 52 °F 47 °F 76% 29.72 in 12 mi SW 15.7 mph - -   Partly Cloudy
2:25 AM 51.8 °F 48.2 °F 88% 29.71 in 6.2 mi SW 11.5 mph - N/A   Partly Cloudy
2:55 AM 53.6 °F 48.2 °F 82% 29.71 in 6.2 mi WSW 15.0 mph - N/A   Overcast
3:00 AM 53 °F 49 °F 80% 29.72 in 7 mi WSW 13.4 mph - -   Overcast
3:25 AM 51.8 °F 48.2 °F 88% 29.71 in 6.2 mi WSW 15.0 mph - N/A   Mostly Cloudy
3:55 AM 51.8 °F 48.2 °F 88% 29.71 in 6.2 mi WSW 15.0 mph - N/A   Partly Cloudy
4:00 AM 52 °F 48 °F 82% 29.72 in 7 mi WSW 13.4 mph - -   Scattered Clouds
4:25 AM 51.8 °F 48.2 °F 88% 29.71 in 6.2 mi WSW 11.5 mph - N/A   Mostly Cloudy
4:55 AM 53.6 °F 48.2 °F 82% 29.71 in 6.2 mi WSW 13.8 mph - N/A   Overcast
5:00 AM 53 °F 49 °F 80% 29.73 in 8 mi WSW 15.7 mph - -   Overcast
5:25 AM 53.6 °F 48.2 °F 82% 29.71 in 6.2 mi WSW 13.8 mph - N/A   Mostly Cloudy
5:55 AM 53.6 °F 48.2 °F 82% 29.74 in 6.2 mi WSW 16.1 mph - N/A   Overcast
6:00 AM 53 °F 49 °F 80% 29.75 in 8 mi WSW 15.7 mph - -   Overcast
6:25 AM 51.8 °F 48.2 °F 88% 29.74 in 6.2 mi WSW 13.8 mph - N/A   Mostly Cloudy
6:55 AM 53.6 °F 48.2 °F 82% 29.74 in 6.2 mi WSW 13.8 mph - N/A   Mostly Cloudy
7:00 AM 53 °F 49 °F 80% 29.76 in 9 mi WSW 13.4 mph - -   Overcast
7:25 AM 53.6 °F 48.2 °F 82% 29.74 in 6.2 mi WSW 13.8 mph - N/A   Scattered Clouds
7:55 AM 53.6 °F 48.2 °F 82% 29.77 in 6.2 mi WSW 12.7 mph - N/A   Scattered Clouds
8:00 AM 54 °F 49 °F 78% 29.78 in 11 mi WSW 15.7 mph - -   Partly Cloudy
8:25 AM 55.4 °F 48.2 °F 77% 29.77 in 6.2 mi WSW 13.8 mph - N/A   Scattered Clouds
8:55 AM 55.4 °F 48.2 °F 77% 29.77 in 6.2 mi WSW 15.0 mph - N/A   Partly Cloudy
9:00 AM 55 °F 49 °F 72% 29.78 in 9 mi WSW 15.7 mph - -   Overcast
9:25 AM 55.4 °F 48.2 °F 77% 29.77 in 6.2 mi WSW 16.1 mph - N/A   Mostly Cloudy
9:55 AM 55.4 °F 50.0 °F 82% 29.77 in 6.2 mi SW 13.8 mph - N/A   Mostly Cloudy
10:00 AM 55 °F 49 °F 76% 29.79 in 9 mi SW 15.7 mph - - Rain Light Rain Showers
10:25 AM 55.4 °F 51.8 °F 88% 29.77 in 6.2 mi SW 16.1 mph - N/A   Mostly Cloudy
10:55 AM 55.4 °F 50.0 °F 82% 29.77 in 6.2 mi SW 17.3 mph - N/A Rain Light Rain
11:00 AM 55 °F 51 °F 81% 29.80 in 13 mi SW 15.7 mph - - Rain Light Drizzle
11:25 AM 53.6 °F 50.0 °F 88% 29.77 in 5.6 mi WSW 13.8 mph - N/A Rain Heavy Rain
11:55 AM 57.2 °F 53.6 °F 88% 29.77 in 6.2 mi WSW 15.0 mph - N/A   Scattered Clouds
12:00 PM 57 °F 52 °F 76% 29.80 in 9 mi SW 15.7 mph - - Rain Rain
12:25 PM 59.0 °F 51.8 °F 77% 29.77 in 6.2 mi SW 17.3 mph - N/A   Mostly Cloudy
12:55 PM 57.2 °F 50.0 °F 77% 29.77 in 6.2 mi WSW 17.3 mph - N/A   Partly Cloudy
1:00 PM 58 °F 51 °F 70% 29.80 in 11 mi WSW 15.7 mph - -   Partly Cloudy
1:25 PM 59.0 °F 50.0 °F 72% 29.80 in 6.2 mi WSW 17.3 mph - N/A   Partly Cloudy
1:55 PM 57.2 °F 50.0 °F 77% 29.80 in 6.2 mi WSW 16.1 mph - N/A   Mostly Cloudy
2:00 PM 59 °F 48 °F 59% 29.81 in 14 mi WSW 20.1 mph - -   Partly Cloudy
2:25 PM 59.0 °F 48.2 °F 67% 29.80 in 6.2 mi WSW 17.3 mph - N/A   Scattered Clouds
2:55 PM 59.0 °F 48.2 °F 67% 29.80 in 6.2 mi West 17.3 mph - N/A   Partly Cloudy
3:00 PM 60 °F 48 °F 55% 29.82 in 12 mi WSW 20.1 mph - -   Partly Cloudy
3:25 PM 60.8 °F 48.2 °F 63% 29.80 in 6.2 mi West 18.4 mph - N/A   Partly Cloudy
3:55 PM 59.0 °F 46.4 °F 63% 29.80 in 6.2 mi WSW 20.7 mph - N/A   Scattered Clouds
4:00 PM 60 °F 49 °F 56% 29.83 in 12 mi WSW 20.1 mph - -   Scattered Clouds
4:25 PM 59.0 °F 48.2 °F 67% 29.80 in 6.2 mi WSW 18.4 mph - N/A   Mostly Cloudy
4:55 PM 57.2 °F 48.2 °F 72% 29.83 in 6.2 mi WSW 18.4 mph - N/A   Mostly Cloudy
5:00 PM 59 °F 47 °F 56% 29.83 in 11 mi WSW 22.4 mph - -   Partly Cloudy
5:25 PM 59.0 °F 48.2 °F 67% 29.83 in 6.2 mi WSW 16.1 mph - N/A   Partly Cloudy
5:55 PM 57.2 °F 48.2 °F 72% 29.83 in 6.2 mi WSW 19.6 mph - N/A   Unknown
6:00 PM 57 °F 48 °F 64% 29.83 in 7 mi WSW 17.9 mph - -   Overcast
6:25 PM 59.0 °F 48.2 °F 67% 29.83 in 6.2 mi WSW 17.3 mph - N/A   Partly Cloudy
6:55 PM 57.2 °F 46.4 °F 67% 29.83 in 6.2 mi WSW 16.1 mph - N/A   Partly Cloudy
7:00 PM 58 °F 47 °F 57% 29.83 in 11 mi WSW 15.7 mph - -   Overcast
7:25 PM 57.2 °F 48.2 °F 72% 29.83 in 6.2 mi WSW 19.6 mph - N/A   Unknown
7:55 PM 55.4 °F 48.2 °F 77% 29.83 in 6.2 mi WSW 16.1 mph - N/A   Unknown
8:00 PM 55 °F 48 °F 69% 29.85 in 8 mi WSW 13.4 mph - -   Partly Cloudy
8:25 PM 55.4 °F 48.2 °F 77% 29.83 in 6.2 mi WSW 15.0 mph - N/A   Unknown
8:55 PM 55.4 °F 48.2 °F 77% 29.83 in 6.2 mi SW 13.8 mph - N/A Rain Light Rain
9:00 PM 55 °F 49 °F 74% 29.84 in 7 mi SW 13.4 mph - - Rain Light Drizzle
9:25 PM 55.4 °F 50.0 °F 82% 29.83 in 6.2 mi WSW 15.0 mph - N/A   Mostly Cloudy
9:55 PM 53.6 °F 50.0 °F 88% 29.83 in 6.2 mi SW 17.3 mph - N/A   Partly Cloudy
10:00 PM 54 °F 49 °F 79% 29.85 in 7 mi SW 13.4 mph - - Rain Drizzle
10:25 PM 55.4 °F 50.0 °F 82% 29.83 in 6.2 mi SW 16.1 mph - N/A   Scattered Clouds
10:55 PM 55.4 °F 50.0 °F 82% 29.83 in 6.2 mi SW 18.4 mph - N/A   Mostly Cloudy
11:00 PM 55 °F 49 °F 74% 29.85 in 7 mi SW 20.1 mph - -   Partly Cloudy
11:25 PM 55.4 °F 50.0 °F 82% 29.83 in 6.2 mi SW 17.3 mph - N/A   Mostly Cloudy
11:55 PM 55.4 °F 50.0 °F 82% 29.83 in 6.2 mi SW 16.1 mph - N/A   Mostly Cloudy